Home   Weather   Springfield   Past weeks

Flag for USA Past Weather in Springfield, Massachusetts, USA — Yesterday and Last 2 Weeks

Now
55 °F

Cool.


Feels Like: 55 °F
Forecast: 53 / 69 °F
Wind: No wind

Location: MADIS Weather Station E7960 (APRSWXNET)

Current Time: Apr 27, 2017 at 7:10:54 am

Latest Report: Apr 27, 2017 at 6:44 am


Visibility: N/A

Pressure: 29.68 "Hg

Humidity: 94%

Dew Point: 53 °F

Location of SpringfieldLocation

Past Weather in Springfield — Graph

°F

Springfield Temperature Yesterday

Maximum temperature yesterday: 59 °F (at 4:28 pm)
Minimum temperature yesterday: 47 °F (at 12:12 am)
Average temperature yesterday: 51 °F

High & Low Weather Summary for the Past Weeks

 TemperatureHumidityPressure
High88 °F (Apr 16, 2:39 pm)95% (Apr 26, 8:13 am)30.34 "Hg (Apr 26, 8:13 am)
Low34 °F (Apr 15, 6:20 am)15% (Apr 14, 4:49 pm)29.45 "Hg (Apr 16, 6:24 pm)
Average54 °F60%29.92 "Hg
* Reported Apr 12 6:13 am — Apr 27 6:14 am, Springfield, Weather by CustomWeather, © 2017

Note: Actual official high and low records may vary slightly from our data, if they occured in-between our weather recording intervals... More about our weather records

Advertising

Springfield Weather History for the Previous 24 Hours

Scroll right to see more
 ConditionsComfort  
Time TempWeatherWind HumidityBarometerVisibility
6:14 am
Thu, Apr 27
55 °FCool.No wind94%29.67 "HgN/A
5:44 am55 °FCool.No wind94%29.65 "HgN/A
5:14 am55 °FCool.No wind94%29.65 "HgN/A
4:14 am55 °FCool.No wind94%29.64 "HgN/A
2:59 am56 °FCool.No wind94%29.63 "HgN/A
2:44 am56 °FCool.No wind94%29.63 "HgN/A
2:29 am56 °FCool.No wind94%29.63 "HgN/A
2:14 am56 °FCool.No wind93%29.63 "HgN/A
1:44 am56 °FCool.No wind93%29.63 "HgN/A
1:29 am56 °FCool.1 mph93%29.63 "HgN/A
12:29 am56 °FCool.No wind93%29.64 "HgN/A
11:29 pm
Wed, Apr 26
57 °FCool.2 mph92%29.65 "HgN/A
10:29 pm57 °FCool.1 mph92%29.64 "HgN/A
9:14 pm57 °FCool.3 mph89%29.63 "HgN/A
8:29 pm58 °FCool.2 mph86%29.61 "HgN/A
7:44 pm59 °FCool.4 mph84%29.59 "HgN/A
6:44 pm59 °FCool.2 mph82%29.58 "HgN/A
4:28 pm59 °FCool.4 mph84%29.58 "HgN/A
3:13 pm58 °FCool.4 mph85%29.61 "HgN/A
2:28 pm58 °FCool.4 mph85%29.62 "HgN/A
1:43 pm58 °FCool.4 mph89%29.62 "HgN/A
1:13 pm56 °FCool.3 mph91%29.62 "HgN/A
12:13 pm55 °FCool.2 mph94%29.63 "HgN/A
11:43 am54 °FCool.5 mph95%29.63 "HgN/A
11:13 am53 °FCool.6 mph95%29.64 "HgN/A
9:43 am51 °FCool.4 mph95%29.65 "HgN/A
8:58 am50 °FLight rain.4 mph95%29.66 "HgN/A
8:28 am49 °FLight rain.5 mph95%29.65 "HgN/A
8:13 am49 °FLight rain.5 mph95%29.65 "HgN/A
7:43 am49 °FLight rain.3 mph94%29.66 "HgN/A
7:28 am48 °FLight rain.4 mph94%29.66 "HgN/A
7:13 am48 °FLight rain.3 mph94%29.66 "HgN/A
Weather by CustomWeather, © 2017

See weather overviewHow to use our weather pages